sat.trackr.live / text

‹ back to catalog

STARLINK-4396

NORAD 53637 · 2022-104BB

PAYLOAD ACTIVE UNKNOWN

§ Identity

Operator
Country
US
Launch date
2022-08-28
Launch site
AFETR
Launch vehicle
Mass (kg)
RCS (m²)

Purposes: comms

External: N2YO · Heavens-Above · Gunter

§ Orbital elements

Epoch: 2026-09-20T04:07:33.359232Z

Period
93.79 min
Inclination
53.1610°
Eccentricity
0.0001139
Mean motion
15.35395830 rev/d
Perigee alt
459.0 km
Apogee alt
460.5 km
Semi-major
6,837.9 km
B*
2.2316e-5
RAAN
63.5115°
Arg perigee
88.2573°
Mean anomaly
271.8561°
Rev number
22,568

§ Raw data

STARLINK-43961 53637U 22104BB  26263.17191388  .00000398  00000+0  22316-4 0  99972 53637  53.1610  63.5115 0001139  88.2573 271.8561 15.35395830225685

JSON: /api/v1/satellites/53637 · /tle

For live sub-satellite position, see the globe view (requires WebGL).

§ Visibility from observer

Set your observer location to see the next 7 days of passes ≥ 10°. The values pass through the URL so the page stays shareable.

No JS? Fill the form by hand. The geolocation button needs JavaScript.